Location: Ferchesar
(52.6477°N, 12.4298°E)
Time: 09:45:47
(UTC+01:00)

Tiros 1 despin weight - Pass Details

Date: 16 December 2021
Orbit: 592 x 641 km, 48.2° (Epoch: 19 January)

Event Time Altitude Azimuth Distance (km) Brightness Sun altitude
Rises 11:09:38 0° 258° (WSW) 2,868 ? 13.0°
Reaches altitude 10° 11:12:00 10° 253° (WSW) 1,956 ? 13.1°
Maximum altitude 11:16:19 48° 179° (S) 789 ? 13.3°
Drops below altitude 10° 11:20:35 10° 105° (ESE) 1,932 ? 13.4°
Sets 11:22:54 0° 100° (E) 2,829 ? 13.4°
